| time (UTC) | temp F | wind direction | speed knots | gust knots | rain 1hr in | rain 24hr in | rain mn in | humidity % | barometer mb |
| 20260507032004 | 48 | 344 | 0.9 | 1.7 | 0.00 | 0.00 | 0.00 | 89 | 1012.2 |
| 20260507031000 | 48 | 123 | 0.9 | 2.6 | 0.00 | 0.00 | 0.00 | 89 | 1012.2 |
| 20260507030000 | 48 | 303 | 0.9 | 2.6 | 0.00 | 0.00 | 0.00 | 89 | 1012.1 |
| 20260507025004 | 48 | 304 | 1.7 | 5.2 | 0.00 | 0.00 | 0.00 | 89 | 1012.1 |
| 20260507024000 | 49 | 0 | 1.7 | 3.5 | 0.00 | 0.00 | 0.00 | 89 | 1012.0 |
| 20260507023004 | 48 | 180 | 1.7 | 3.5 | 0.00 | 0.00 | 0.00 | 89 | 1012.0 |
| 20260507022004 | 48 | 347 | 1.7 | 6.1 | 0.00 | 0.00 | 0.00 | 89 | 1011.9 |
| 20260507021004 | 49 | 328 | 0.9 | 3.5 | 0.00 | 0.00 | 0.00 | 89 | 1011.9 |
| 20260507020004 | 49 | 324 | 0.9 | 3.5 | 0.00 | 0.00 | 0.00 | 89 | 1011.8 |
| 20260507015004 | 49 | 339 | 1.7 | 4.3 | 0.00 | 0.00 | 0.00 | 89 | 1011.8 |
| 20260507014000 | 49 | 8 | 1.7 | 5.2 | 0.00 | 0.00 | 0.00 | 89 | 1011.7 |
| 20260507013000 | 49 | 49 | 0.9 | 2.6 | 0.00 | 0.00 | 0.00 | 89 | 1011.7 |
| 20260507012004 | 49 | 336 | 0.9 | 1.7 | 0.00 | 0.00 | 0.00 | 89 | 1011.6 |
| 20260507011004 | 49 | 336 | 1.7 | 3.5 | 0.00 | 0.00 | 0.00 | 89 | 1011.5 |
| 20260507010004 | 49 | 331 | 0.9 | 3.5 | 0.00 | 0.00 | 0.00 | 89 | 1011.4 |
| 20260507005000 | 49 | 319 | 0.9 | 3.5 | 0.00 | 0.00 | 0.00 | 89 | 1011.4 |
| 20260507004004 | 49 | 322 | 2.6 | 5.2 | 0.00 | 0.00 | 0.00 | 89 | 1011.3 |
| 20260507003004 | 49 | 334 | 1.7 | 4.3 | 0.00 | 0.00 | 0.00 | 90 | 1011.3 |
| 20260507002000 | 49 | 318 | 2.6 | 6.1 | 0.00 | 0.00 | 0.00 | 89 | 1011.3 |
| 20260507001000 | 49 | 312 | 2.6 | 3.5 | 0.00 | 0.00 | 0.00 | 89 | 1011.3 |
| 20260507000005 | 49 | 307 | 1.7 | 5.2 | 0.00 | 0.00 | 0.00 | 89 | 1011.3 |
| 20260506235001 | 49 | 13 | 0.9 | 2.6 | 0.00 | 0.00 | 0.00 | 90 | 1011.2 |
| 20260506234000 | 49 | 340 | 1.7 | 3.5 | 0.00 | 0.00 | 0.00 | 90 | 1011.2 |
| 20260506233004 | 49 | 329 | 1.7 | 3.5 | 0.00 | 0.00 | 0.00 | 89 | 1011.2 |
| 20260506232004 | 49 | 307 | 1.7 | 3.5 | 0.00 | 0.00 | 0.00 | 89 | 1011.2 |
| 20260506231004 | 49 | 333 | 1.7 | 3.5 | 0.00 | 0.00 | 0.00 | 89 | 1011.1 |
| 20260506230001 | 49 | 320 | 1.7 | 3.5 | 0.00 | 0.00 | 0.00 | 89 | 1011.1 |
| 20260506225000 | 50 | 325 | 1.7 | 3.5 | 0.00 | 0.00 | 0.00 | 89 | 1011.1 |
| 20260506224000 | 50 | 24 | 0.9 | 3.5 | 0.00 | 0.00 | 0.00 | 90 | 1011.0 |
| 20260506223000 | 50 | 336 | 0.9 | 1.7 | 0.00 | 0.00 | 0.00 | 90 | 1010.9 |
| 20260506222004 | 50 | 30 | 1.7 | 3.5 | 0.00 | 0.00 | 0.00 | 90 | 1010.7 |
| 20260506221004 | 49 | 8 | 0.9 | 3.5 | 0.00 | 0.00 | 0.00 | 90 | 1010.7 |
| 20260506220005 | 49 | 183 | 0.9 | 2.6 | 0.00 | 0.00 | 0.06 | 90 | 1010.6 |
| 20260506215005 | 49 | 358 | 0.9 | 1.7 | 0.00 | 0.00 | 0.06 | 90 | 1010.6 |
| 20260506214004 | 49 | 5 | 1.7 | 4.3 | 0.00 | 0.00 | 0.06 | 90 | 1010.6 |
| 20260506213004 | 49 | 331 | 1.7 | 4.3 | 0.00 | 0.00 | 0.06 | 90 | 1010.5 |
| 20260506212004 | 49 | 332 | 1.7 | 5.2 | 0.00 | 0.00 | 0.06 | 90 | 1010.5 |
| 20260506211000 | 49 | 329 | 2.6 | 6.1 | 0.00 | 0.00 | 0.06 | 90 | 1010.4 |
| 20260506210004 | 49 | 315 | 1.7 | 3.5 | 0.00 | 0.00 | 0.06 | 90 | 1010.3 |
| 20260506205000 | 49 | 316 | 1.7 | 4.3 | 0.00 | 0.00 | 0.06 | 90 | 1010.3 |
| 20260506204005 | 49 | 317 | 1.7 | 6.1 | 0.00 | 0.00 | 0.06 | 89 | 1010.1 |
| 20260506203000 | 49 | 317 | 1.7 | 6.1 | 0.00 | 0.00 | 0.06 | 89 | 1010.1 |
| 20260506202004 | 49 | 317 | 1.7 | 6.1 | 0.00 | 0.00 | 0.06 | 89 | 1010.1 |
| 20260506201004 | 49 | 317 | 1.7 | 6.1 | 0.00 | 0.00 | 0.06 | 89 | 1010.1 |
| 20260506200000 | 49 | 317 | 1.7 | 6.1 | 0.00 | 0.00 | 0.06 | 89 | 1010.1 |
| 20260506195004 | 49 | 320 | 3.5 | 7.8 | 0.00 | 0.00 | 0.06 | 88 | 1009.9 |
| 20260506194004 | 49 | 334 | 2.6 | 7.8 | 0.00 | 0.00 | 0.06 | 88 | 1009.9 |
| 20260506193000 | 50 | 328 | 1.7 | 4.3 | 0.00 | 0.00 | 0.06 | 88 | 1009.6 |
| 20260506192004 | 49 | 306 | 1.7 | 5.2 | 0.00 | 0.00 | 0.06 | 88 | 1009.5 |
| 20260506191004 | 49 | 321 | 1.7 | 5.2 | 0.00 | 0.00 | 0.06 | 88 | 1009.4 |
| 20260506190000 | 50 | 316 | 2.6 | 6.1 | 0.00 | 0.00 | 0.06 | 88 | 1009.2 |
| 20260506185000 | 50 | 322 | 3.5 | 9.6 | 0.00 | 0.00 | 0.06 | 88 | 1009.1 |
| 20260506184001 | 50 | 326 | 3.5 | 7.8 | 0.00 | 0.00 | 0.06 | 88 | 1008.9 |
| 20260506183006 | 50 | 315 | 3.5 | 7.8 | 0.00 | 0.00 | 0.06 | 87 | 1008.9 |
| 20260506182004 | 50 | 320 | 3.5 | 12.2 | 0.00 | 0.00 | 0.06 | 87 | 1008.8 |
| 20260506181001 | 50 | 325 | 3.5 | 12.2 | 0.00 | 0.00 | 0.06 | 87 | 1008.8 |
| 20260506180000 | 50 | 329 | 2.6 | 7.8 | 0.00 | 0.00 | 0.06 | 87 | 1008.8 |
| 20260506175000 | 53 | 344 | 1.7 | 1.7 | 0.00 | 0.00 | 0.06 | 83 | 1008.6 |
| 20260506174004 | 53 | 344 | 1.7 | 1.7 | 0.00 | 0.00 | 0.06 | 83 | 1008.6 |
| 20260506173000 | 53 | 344 | 1.7 | 1.7 | 0.00 | 0.00 | 0.06 | 83 | 1008.6 |
| 20260506172005 | 53 | 344 | 1.7 | 1.7 | 0.00 | 0.00 | 0.06 | 83 | 1008.6 |
| 20260506171004 | 53 | 344 | 1.7 | 1.7 | 0.00 | 0.00 | 0.06 | 83 | 1008.6 |
| 20260506170004 | 53 | 344 | 1.7 | 1.7 | 0.00 | 0.00 | 0.06 | 83 | 1008.6 |
| 20260506165004 | 53 | 299 | 1.7 | 4.3 | 0.00 | 0.00 | 0.06 | 83 | 1008.4 |
| 20260506164004 | 53 | 329 | 0.9 | 1.7 | 0.00 | 0.00 | 0.06 | 84 | 1008.3 |
| 20260506163000 | 53 | 329 | 0.9 | 1.7 | 0.00 | 0.00 | 0.06 | 84 | 1008.3 |
| 20260506162004 | 54 | 320 | 1.7 | 3.5 | 0.00 | 0.00 | 0.06 | 83 | 1008.1 |
| 20260506161000 | 54 | 341 | 1.7 | 3.5 | 0.00 | 0.00 | 0.06 | 84 | 1007.9 |
| 20260506160004 | 54 | 341 | 1.7 | 3.5 | 0.00 | 0.00 | 0.06 | 84 | 1007.9 |
| 20260506155004 | 54 | 343 | 1.7 | 7.0 | 0.00 | 0.00 | 0.06 | 84 | 1007.7 |
| 20260506154004 | 54 | 333 | 2.6 | 7.8 | 0.00 | 0.00 | 0.06 | 83 | 1007.6 |
| 20260506153005 | 54 | 333 | 2.6 | 7.8 | 0.00 | 0.00 | 0.06 | 83 | 1007.6 |
| 20260506152004 | 55 | 334 | 2.6 | 7.8 | 0.00 | 0.00 | 0.06 | 82 | 1007.5 |
| 20260506151005 | 55 | 327 | 3.5 | 11.3 | 0.00 | 0.00 | 0.06 | 83 | 1007.3 |
| 20260506150004 | 55 | 327 | 3.5 | 11.3 | 0.00 | 0.00 | 0.06 | 83 | 1007.3 |
| 20260506145000 | 55 | 340 | 3.5 | 7.0 | 0.00 | 0.00 | 0.06 | 83 | 1007.2 |
| 20260506144004 | 55 | 338 | 3.5 | 6.1 | 0.00 | 0.00 | 0.06 | 83 | 1007.3 |
| 20260506143005 | 55 | 338 | 3.5 | 6.1 | 0.00 | 0.00 | 0.06 | 83 | 1007.3 |
| 20260506142000 | 55 | 334 | 3.5 | 7.8 | 0.00 | 0.00 | 0.06 | 83 | 1007.3 |
| 20260506141001 | 55 | 333 | 2.6 | 6.1 | 0.00 | 0.00 | 0.06 | 83 | 1007.1 |
| 20260506140000 | 55 | 333 | 2.6 | 6.1 | 0.00 | 0.00 | 0.06 | 83 | 1007.1 |
| 20260506135004 | 55 | 330 | 3.5 | 10.4 | 0.00 | 0.00 | 0.06 | 83 | 1007.0 |
| 20260506134000 | 56 | 331 | 2.6 | 6.1 | 0.00 | 0.00 | 0.06 | 82 | 1007.1 |
| 20260506133000 | 56 | 331 | 2.6 | 6.1 | 0.00 | 0.00 | 0.06 | 82 | 1007.1 |
| 20260506132000 | 56 | 334 | 2.6 | 9.6 | 0.00 | 0.00 | 0.06 | 81 | 1007.0 |
| 20260506131004 | 57 | 336 | 3.5 | 8.7 | 0.00 | 0.00 | 0.06 | 82 | 1006.8 |
| 20260506130005 | 57 | 336 | 3.5 | 8.7 | 0.00 | 0.00 | 0.06 | 82 | 1006.8 |
| 20260506125004 | 57 | 340 | 3.5 | 9.6 | 0.00 | 0.00 | 0.06 | 82 | 1006.7 |
| 20260506124004 | 56 | 316 | 1.7 | 5.2 | 0.00 | 0.00 | 0.06 | 85 | 1006.8 |
| 20260506123000 | 56 | 316 | 1.7 | 5.2 | 0.00 | 0.00 | 0.06 | 85 | 1006.8 |
| 20260506122000 | 56 | 329 | 1.7 | 5.2 | 0.00 | 0.00 | 0.06 | 85 | 1006.7 |
| 20260506121004 | 56 | 329 | 1.7 | 4.3 | 0.00 | 0.00 | 0.06 | 85 | 1006.7 |
| 20260506120005 | 56 | 329 | 1.7 | 4.3 | 0.00 | 0.00 | 0.06 | 85 | 1006.7 |
| 20260506115000 | 56 | 329 | 2.6 | 6.1 | 0.00 | 0.00 | 0.06 | 85 | 1006.6 |
| 20260506114000 | 56 | 347 | 1.7 | 3.5 | 0.00 | 0.00 | 0.06 | 86 | 1006.7 |
| 20260506113005 | 57 | 334 | 0.9 | 3.5 | 0.00 | 0.00 | 0.06 | 87 | 1006.6 |
| 20260506112000 | 56 | 302 | 1.7 | 5.2 | 0.00 | 0.00 | 0.06 | 86 | 1006.5 |
| 20260506111004 | 56 | 339 | 1.7 | 5.2 | 0.00 | 0.00 | 0.06 | 87 | 1006.5 |
| 20260506110004 | 56 | 335 | 1.7 | 6.1 | 0.00 | 0.00 | 0.06 | 87 | 1006.4 |
| 20260506105004 | 56 | 343 | 2.6 | 6.1 | 0.00 | 0.00 | 0.06 | 87 | 1006.4 |
| 20260506104000 | 56 | 341 | 1.7 | 3.5 | 0.00 | 0.00 | 0.06 | 88 | 1006.4 |
| 20260506103000 | 55 | 350 | 1.7 | 3.5 | 0.00 | 0.00 | 0.06 | 88 | 1006.3 |
| 20260506102000 | 55 | 347 | 1.7 | 5.2 | 0.00 | 0.00 | 0.06 | 88 | 1006.2 |
| 20260506101004 | 55 | 334 | 1.7 | 5.2 | 0.00 | 0.00 | 0.06 | 89 | 1006.2 |
| 20260506100001 | 55 | 348 | 1.7 | 3.5 | 0.00 | 0.00 | 0.06 | 89 | 1006.2 |
| 20260506095004 | 55 | 355 | 1.7 | 5.2 | 0.00 | 0.00 | 0.06 | 89 | 1006.1 |
| 20260506094000 | 55 | 341 | 2.6 | 5.2 | 0.00 | 0.00 | 0.06 | 90 | 1006.0 |
| 20260506093004 | 55 | 341 | 1.7 | 7.0 | 0.00 | 0.00 | 0.06 | 90 | 1005.9 |
| 20260506092004 | 54 | 339 | 2.6 | 5.2 | 0.00 | 0.00 | 0.06 | 90 | 1005.9 |
| 20260506091000 | 54 | 340 | 1.7 | 4.3 | 0.00 | 0.00 | 0.06 | 90 | 1005.9 |
| 20260506090000 | 54 | 340 | 1.7 | 3.5 | 0.00 | 0.00 | 0.06 | 90 | 1005.9 |
| 20260506085005 | 54 | 334 | 1.7 | 4.3 | 0.00 | 0.00 | 0.06 | 90 | 1005.8 |
| 20260506084000 | 54 | 337 | 1.7 | 5.2 | 0.00 | 0.00 | 0.06 | 90 | 1005.7 |
| 20260506083005 | 54 | 349 | 2.6 | 3.5 | 0.00 | 0.00 | 0.06 | 90 | 1005.6 |
| 20260506082000 | 54 | 352 | 1.7 | 3.5 | 0.00 | 0.00 | 0.06 | 90 | 1005.7 |
| 20260506081000 | 54 | 1 | 1.7 | 4.3 | 0.00 | 0.00 | 0.06 | 90 | 1005.7 |
| 20260506073004 | 54 | 352 | 1.7 | 3.5 | 0.00 | 0.00 | 0.06 | 91 | 1005.7 |
| 20260506072001 | 54 | 356 | 0.9 | 2.6 | 0.00 | 0.00 | 0.06 | 91 | 1005.6 |
| 20260506071004 | 54 | 338 | 0.9 | 2.6 | 0.00 | 0.00 | 0.06 | 91 | 1005.6 |
| 20260506062005 | 53 | 23 | 0.9 | 1.7 | 0.00 | 0.00 | 0.06 | 92 | 1005.4 |
| 20260506061001 | 53 | 45 | 0.9 | 1.7 | 0.00 | 0.00 | 0.06 | 92 | 1005.4 |
| 20260506051004 | 53 | 23 | 0.9 | 0.9 | 0.02 | 0.00 | 0.06 | 92 | 1005.5 |
| 20260506045005 | 53 | 206 | 0.9 | 0.9 | 0.02 | 0.00 | 0.05 | 92 | 1005.7 |
| 20260506044004 | 53 | 322 | 0.9 | 1.7 | 0.02 | 0.00 | 0.04 | 92 | 1005.7 |
| 20260506043000 | 53 | 16 | 0.9 | 1.7 | 0.02 | 0.00 | 0.04 | 92 | 1005.6 |
| 20260506042005 | 53 | 90 | 0.9 | 0.9 | 0.01 | 0.00 | 0.04 | 92 | 1005.7 |
| 20260506041004 | 53 | 90 | 0.9 | 0.9 | 0.00 | 0.00 | 0.03 | 92 | 1005.7 |
| 20260506040004 | 53 | 124 | 0.9 | 1.7 | 0.00 | 0.00 | 0.03 | 91 | 1005.7 |
| 20260506035001 | 53 | 329 | 0.9 | 1.7 | 0.00 | 0.00 | 0.03 | 91 | 1005.7 |
| 20260506034005 | 53 | 355 | 0.9 | 1.7 | 0.00 | 0.00 | 0.03 | 92 | 1005.7 |
| 20260506033005 | 53 | 17 | 0.9 | 3.5 | 0.00 | 0.00 | 0.03 | 92 | 1005.6 |